ISS (ZARYA) 1 25544U 98067A 26263.14255447 .00007470 00000+0 14267-3 0 9991 2 25544 51.6307 190.1401 0004820 160.6694 199.4478 15.49188396586472 POISK 1 36086U 09060A 26263.14255447 .00007470 00000+0 14267-3 0 9999 2 36086 51.6307 190.1401 0004820 160.6694 199.4478 15.49188396586958 CSS (TIANHE) 1 48274U 21035A 26262.89812237 .00015375 00000+0 18770-3 0 9990 2 48274 41.4679 106.9413 0002586 292.0471 68.0093 15.60115363307959 ISS (NAUKA) 1 49044U 21066A 26263.14255447 .00007470 00000+0 14267-3 0 9997 2 49044 51.6307 190.1401 0004820 160.6694 199.4478 15.49188396586990 FREGAT DEB 1 49271U 11037PF 26262.19552305 .00010835 00000+0 15154-1 0 9996 2 49271 51.6468 78.6970 0944064 131.6853 236.8792 12.44551487236746 CSS (WENTIAN) 1 53239U 22085A 26263.02615076 .00015971 00000+0 19476-3 0 9997 2 53239 41.4678 106.1628 0002596 292.3466 67.7098 15.60120079288233 CSS (MENGTIAN) 1 54216U 22143A 26263.02615076 .00015971 00000+0 19476-3 0 9998 2 54216 41.4678 106.1628 0002596 292.3466 67.7098 15.60120079308074 HRC MONOBLOCK CAMERA 1 66052U 98067XR 26262.07957841 .00237527 33569-4 55611-3 0 9995 2 66052 51.6134 150.4403 0004853 177.6725 182.4306 15.96483619 52871 SZ-21 MODULE 1 66515U 25246C 26262.79020193 .00068397 00000+0 26788-3 0 9997 2 66515 41.4702 74.2737 0011479 331.5770 28.4450 15.85904869 48719 DUPLEX 1 66906U 98067XS 26263.12705406 .00048713 00000+0 39686-3 0 9998 2 66906 51.6253 167.4684 0004483 162.7348 197.3803 15.70127789 45532 KNACKSAT-2 1 67683U 98067XZ 26262.25468691 .00061304 00000+0 51271-3 0 9991 2 67683 51.6237 178.1756 0008279 181.0467 179.0514 15.69367004 35000 GXIBA-1 1 67685U 98067YB 26262.48015762 .00085832 00000+0 59955-3 0 9994 2 67685 51.6228 174.3941 0008976 180.7732 179.3254 15.73504864 35074 UITMSAT-2 1 67686U 98067YC 26262.04776538 .00203393 00000+0 80180-3 0 9990 2 67686 51.6181 170.6922 0008124 164.7475 195.3775 15.85686331 35082 LEOPARD 1 67687U 98067YD 26262.14038350 .00149197 00000+0 95417-3 0 9995 2 67687 51.6236 176.6625 0008795 163.3610 196.7679 15.75302472 34931 HMU-SAT2 1 67688U 98067YE 26262.48212092 .00135849 00000+0 73260-3 0 9991 2 67688 51.6246 171.4040 0007936 160.9140 199.2160 15.79194602 35037 CREW DRAGON 12 1 67796U 26031A 26262.82001780 .00006624 00000+0 12748-3 0 9993 2 67796 51.6308 191.7362 0004806 159.4528 200.6655 15.49182630586856 CYGNUS NG-24 1 68689U 26079A 26262.82001780 .00006624 00000+0 12748-3 0 9997 2 68689 51.6308 191.7362 0004806 159.4528 200.6655 15.49182630586870 PROGRESS-MS 34 1 68837U 26093A 26262.82001780 .00006624 00000+0 12748-3 0 9998 2 68837 51.6308 191.7362 0004806 159.4528 200.6655 15.49182630586897 TIANZHOU-10 1 69049U 26102A 26262.89812237 .00015375 00000+0 18770-3 0 9993 2 69049 41.4679 106.9413 0002586 292.0471 68.0093 15.60115363308841 SHENZHOU-23 (SZ-23) 1 69180U 26113A 26262.89812237 .00015375 00000+0 18770-3 0 9991 2 69180 41.4679 106.9413 0002586 292.0471 68.0093 15.60115363307891